This demonstration page uses our WeatherBlox Daily Observations layout. Learn more.

Left ArrowRight Arrow

41.86663, -103.66717

Hourly Observations for November 8, 2020

Temp ( °F °C ) Dew Point ( °F °C ) Humidity (%) Winds ( mph kmh ) Pressure ( in mb ) Visibility ( mi km ) Precip ( " mm )
12:53 am 00:53 Clear 62 16.7 41 5 46 46 SSE 24 39 29.20 989 10 16 0.00 0.00
1:53 am 01:53 Clear 61 16.1 42 5.6 50 50 SSE 13 20 29.20 989 10 16 0.00 0.00
2:53 am 02:53 Clear 59 15 43 6.1 56 56 ESE 10 17 29.18 988 10 16 0.00 0.00
3:53 am 03:53 Clear 58 14.4 44 6.7 60 60 E 7 11 29.24 990 10 16 0.00 0.00
4:48 am 04:48 Cloudy 54 12 37 3 54 54 W 16 26 29.29 992 10 16 0.00 0.00
4:53 am 04:53 Cloudy with Light Rain 52 11.1 39 3.9 61 61 W 14 22 29.29 992 9 14 0.00 0.00
5:53 am 05:53 Cloudy with Light Rain 45 7.2 44 6.7 97 97 WNW 16 26 29.37 995 7 11 0.06 1.52
6:53 am 06:53 Cloudy with Light Rain 44 6.7 44 6.7 100 100 W 6 9 29.42 996 10 16 0.05 1.27
7:53 am 07:53 Cloudy 45 7.2 45 7.2 100 100 Calm 29.43 997 10 16 0.02 0.51
8:53 am 08:53 Cloudy with Light Rain 48 8.9 40 4.4 74 74 SW 15 24 29.47 998 10 16 0.01 0.25
9:26 am 09:26 Cloudy with Light Rain 47 8.3 38 3.3 71 71 WNW 14 22 29.52 1000 10 16 0.00 0.00
9:53 am 09:53 Cloudy 50 10 36 2.2 59 59 WNW 12 19 29.52 1000 10 16 0.00 0.00
10:53 am 10:53 Mostly Cloudy 54 12.2 33 0.6 45 45 W 9 15 29.51 999 10 16 0.00 0.00
11:53 am 11:53 Sunny 57 13.9 20 -6.7 24 24 W 24 39 29.50 999 10 16 0.00 0.00
12:53 pm 12:53 Sunny 59 15 20 -6.7 22 22 W 18 30 29.52 1000 10 16 0.00 0.00
1:53 pm 13:53 Sunny 59 15 17 -8.3 19 19 W 15 24 29.53 1000 10 16 0.00 0.00
2:53 pm 14:53 Sunny 59 15 15 -9.4 18 18 WNW 12 19 29.56 1001 10 16 0.00 0.00
3:53 pm 15:53 Sunny 54 12.2 22 -5.6 29 29 NW 7 11 29.60 1002 10 16 0.00 0.00
4:53 pm 16:53 Clear 44 6.7 26 -3.3 49 49 NNW 8 13 29.66 1005 10 16 0.00 0.00
5:53 pm 17:53 Clear 39 3.9 26 -3.3 60 60 NE 9 15 29.70 1006 10 16 0.00 0.00
6:53 pm 18:53 Clear 39 3.9 26 -3.3 60 60 NNE 10 17 29.71 1006 10 16 0.00 0.00
7:53 pm 19:53 Clear 39 3.9 25 -3.9 57 57 undefined N/A 29.71 1006 10 16 0.00 0.00
8:53 pm 20:53 Clear 35 1.7 27 -2.8 72 72 S 5 7 29.72 1007 10 16 0.00 0.00
9:53 pm 21:53 Clear 38 3.3 28 -2.2 68 68 N 8 13 29.72 1006 10 16 0.00 0.00
10:53 pm 22:53 Cloudy 38 3.3 31 -0.6 76 76 NNE 18 30 29.72 1006 10 16 0.00 0.00
11:53 pm 23:53 Cloudy 36 2.2 31 -0.6 82 82 SE 9 15 29.77 1008 10 16 0.00 0.00

Powered by AerisWeather